Port Hope, MI

9:27 AM EDT on March 29, 2017 (GMT -0400)
Port Hope

Weather History for KP58 - April, 2013

Change the Weather History Date:

Monday, April 8, 2013

  Actual Average Record
Temperature  
Mean Temperature 36 °F -  
Max Temperature 42 °F 43 °F 69 °F (2001)
Min Temperature 30 °F 32 °F 24 °F (1997)
Degree Days  
Heating Degree Days 30    
Moisture  
Dew Point 33 °F    
Average Humidity 86    
Maximum Humidity 100    
Minimum Humidity 76    
Precipitation  
Precipitation 1.00 in - - ()
Sea Level Pressure  
Sea Level Pressure 29.92 in    
Wind  
Wind Speed 7 mph (East)    
Max Wind Speed 20 mph    
Max Gust Speed 26 mph    
Averages and records for this station are not official NWS values.
T = Trace of Precipitation, MM = Missing Value Source: NWS Daily Summary

Daily Weather History Graph

Daily Weather History Graph

Search for Another Location

Airport or City:

Trip Planner

Search our weather history database for the weather conditions in past years. The results will help you decide how hot, cold, wet, or windy it might be!

Date:

Astronomy

Apr. 08, 2013 Rise Set
Actual Time 6:59 AM EDT 8:07 PM EDT
Civil Twilight 6:30 AM EDT 8:36 PM EDT
Nautical Twilight 5:54 AM EDT 9:12 PM EDT
Astronomical Twilight 5:17 AM EDT 9:49 PM EDT
Moon 5:52 AM EDT (4/8) 6:38 PM EDT (4/8)
Length of Visible Light 14h 06m
Length of Day
13h 07m
Waning Crescent, 3% of the Moon is Illuminated
Apr 8
Waning Crescent
Apr 10
New
Apr 18
First Quarter
Apr 25
Full
May 2
Last Quarter

Hourly Weather History & Observations

Time (EDT) Temp. Windchill Dew Point Humidity Pressure Visibility Wind Dir Wind Speed Gust Speed Precip Events Conditions
12:51 AM 37.0 °F 34.5 °F 30.0 °F 76% 30.07 in - ENE 3.5 mph - N/A   Unknown
1:51 AM 37.0 °F 34.5 °F 30.9 °F 79% 30.07 in - ENE 3.5 mph - N/A   Unknown
2:51 AM 37.0 °F 31.0 °F 30.9 °F 79% 30.05 in - East 8.1 mph - N/A   Unknown
3:51 AM 36.0 °F 29.6 °F 30.9 °F 82% 30.04 in - ESE 8.1 mph - N/A   Unknown
4:51 AM 33.1 °F - 28.9 °F 85% 30.06 in - Calm Calm - N/A   Unknown
5:51 AM 30.9 °F - 28.0 °F 89% 30.05 in - Calm Calm - N/A   Unknown
6:51 AM 32.0 °F 27.5 °F 28.9 °F 88% 30.04 in - SSE 4.6 mph - N/A   Unknown
7:51 AM 34.0 °F 31.0 °F 30.9 °F 89% 30.04 in - SSE 3.5 mph - N/A   Unknown
8:51 AM 37.9 °F 32.1 °F 33.1 °F 83% 30.03 in - SE 8.1 mph - N/A   Unknown
9:51 AM 37.9 °F 29.2 °F 33.1 °F 83% 30.01 in - ESE 15.0 mph - N/A   Unknown
10:51 AM 39.0 °F 29.3 °F 33.1 °F 79% 29.97 in - ESE 19.6 mph - N/A   Unknown
11:51 AM 39.0 °F 29.6 °F 32.0 °F 76% 29.95 in - ESE 18.4 mph 26.5 mph N/A   Unknown
12:51 PM 39.9 °F 31.1 °F 34.0 °F 79% 29.91 in - ESE 17.3 mph - N/A   Unknown
1:51 PM 41.0 °F 33.9 °F 35.1 °F 79% 29.89 in - ESE 12.7 mph - N/A   Unknown
2:51 PM 39.9 °F 30.8 °F 36.0 °F 86% 29.83 in - ESE 18.4 mph - 0.22 in   Unknown
3:51 PM 39.0 °F 30.3 °F 37.9 °F 96% 29.78 in - East 16.1 mph - 0.18 in   Unknown
4:51 PM 39.9 °F 37.8 °F - N/A% 29.77 in - SE 3.5 mph - 0.25 in   Unknown
5:51 PM 41.0 °F 34.3 °F - N/A% 29.73 in - ENE 11.5 mph - 0.26 in   Unknown
6:51 PM 39.9 °F 35.1 °F - N/A% 29.73 in - ENE 6.9 mph - 0.07 in   Unknown
7:51 PM 39.9 °F 35.1 °F - N/A% 29.73 in - East 6.9 mph - 0.02 in   Unknown
8:51 PM 41.0 °F - 41.0 °F 100% 29.76 in - Calm Calm - N/A   Unknown
9:51 PM 37.9 °F 32.1 °F 37.9 °F 100% 29.83 in - WNW 8.1 mph - N/A   Unknown
10:51 PM 37.0 °F 30.4 °F 36.0 °F 96% 29.88 in - NW 9.2 mph 17.3 mph N/A   Unknown
11:51 PM 37.0 °F 31.0 °F 35.1 °F 93% 29.93 in - NW 8.1 mph 19.6 mph N/A   Unknown